Meteo Giornale » Osservazioni meteo Italia » Rimini

ore: 05:50 - Osservazioni Meteo Rimini
Lat. 44° 2' N Lon. 12° 37' E Alt. 12 metri s.l.m.

foschia Europe/Rome

-3 °C

Foschia

Temp. 24 Ore

-4 °C

6 °C

Nord

3.7 Km/h

Dew point -4 °C

Umidità 92 %

Visibilità  3 Km

Il sole sorge alle ore 07:36

Il sole tramonta alle ore 17:03

Data e Ora Cielo e Fenomeni T °C DP °C Um. % Pres. hPa Vis. km Vento km/h
Oggi h: 05:50 foschia Foschia -3 -4 92 1025 3 N 3.7
Oggi h: 05:20 foschia Foschia -4 -4 100 1025 2 N 1.8
Oggi h: 04:50 foschia Foschia -4 -4 100 1025 2 N 1.8
Oggi h: 04:20 foschia Foschia -3 -4 92 1025 2 N 1.8
Oggi h: 03:50 foschia Foschia -3 -4 92 1025 2 S/SO 7.4
Oggi h: 03:20 foschia Foschia -2 -3 92 1025 1 N 5.5
Oggi h: 02:50 foschia Foschia -3 -4 92 1026 2 N 3.7
Oggi h: 02:20 foschia Foschia -3 -3 100 1026 2 N 5.5
Oggi h: 01:50 foschia Foschia -2 -3 92 1026 2 N 5.5
Oggi h: 01:20 foschia Foschia -2 -3 92 1026 2 S/SO 7.4
Oggi h: 00:50 foschia Foschia -2 -3 92 1026 2 N 5.5
Oggi h: 00:20 foschia Foschia -2 -3 92 1026 2 N 5.5
Ieri h: 23:50 foschia Foschia -2 -3 92 1026 2 N 3.7
Ieri h: 23:20 foschia Foschia -1 -3 86 1025 2 N 1.8
Ieri h: 22:50 foschia Foschia -0 -2 86 1025 3 N 3.7
Ieri h: 22:20 foschia Foschia -0 -1 92 1025 3 N 5.5
Ieri h: 21:50 foschia Foschia -1 -2 92 1025 3 S/SO 9.3
Ieri h: 21:20 foschia Foschia -1 -2 92 1025 3 S/SO 9.3
Ieri h: 20:50 foschia Foschia -1 -2 92 1025 3 N 5.5
Ieri h: 20:20 foschia Foschia -0 -2 86 1025 3 N 5.5
Ieri h: 19:50 foschia Foschia -0 -1 92 1025 4 N 1.8
Ieri h: 19:20 foschia Foschia -1 -2 92 1025 5 S/SO 7.4
Ieri h: 18:50 foschia Foschia 0 -2 86 1025 5 S/SO 7.4
Ieri h: 18:20 foschia Foschia 1 -0 93 1025 5 N 5.5
Ieri h: 17:50 sereno Sereno 2 -1 80 1024 6 N 3.7
Ieri h: 17:20 sereno Sereno 4 -0 75 1024 6 N 1.8
Ieri h: 16:50 sereno Sereno 4 0 75 1024 7 N 5.5
Ieri h: 16:20 sereno Sereno 5 0 70 1024 7 N 7.4
Ieri h: 15:50 sereno Sereno 5 0 70 1024 7 N 9.3
Ieri h: 15:20 sereno Sereno 5 -0 70 1024 7 N 11.1
Ieri h: 14:50 sereno Sereno 5 0 70 1024 7 N 13
Ieri h: 14:20 sereno Sereno 5 1 75 1023 7 N/NE 14.8
Ieri h: 13:50 sereno Sereno 6 1 70 1023 7 N 13
Ieri h: 13:20 sereno Sereno 5 1 75 1024 8 N 13
Ieri h: 12:50 sereno Sereno 6 1 70 1024 8 N/NE 11.1
Ieri h: 12:20 sereno Sereno 6 1 70 1024 10 N 11.1
Ieri h: 11:50 sereno Sereno 6 0 65 1024 10 N/NO 9.3
Ieri h: 11:20 sereno Sereno 6 0 65 1025 10 NO 11.1
Ieri h: 10:50 sereno Sereno 5 -1 65 1024 10 NO 7.4
Ieri h: 10:20 sereno Sereno 5 -1 65 1024 10 N 3.7
Ieri h: 09:50 sereno Sereno 4 -1 69 1024 10 N 3.7
Ieri h: 09:20 sereno Sereno 3 -1 74 1024 10 N 3.7
Ieri h: 08:50 sereno Sereno 1 -1 86 1023 10 N 3.7
Ieri h: 08:20 poco_nuvoloso Poco Nuvoloso 1 -1 86 1023 10 N 3.7
Ieri h: 07:50 molto_nuvoloso Molto Nuvoloso 2 -1 80 1023 10 NO 7.4
Ieri h: 07:20 molto_nuvoloso Molto Nuvoloso 3 -1 74 1023 10 N 3.7
Ieri h: 06:50 coperto Coperto 3 -1 74 1023 10 O/NO 11.1
Ieri h: 06:20 molto_nuvoloso Molto Nuvoloso 3 -1 74 1022 10 O 9.3
Ieri h: 05:50 coperto Coperto 3 -1 74 1022 10 O/NO 13